SCP
0 0 0 0 0 0 0 0 0 0 0 0 0 0 0 0 0 0 0 0 0 -0 -0 -1 -1 -0 -0 -0 -1 -1 -1 -1 -0 -0 -0 -0 -0 0 0 0 0 0 0 0 0 0 -0 0 0
0 0 0 0 0 0 0 0 0 0 0 0 0 0 0 0 0 0 0 0 0 -0 -0 -0 -1 -1 -0 -0 -1 -1 -1 -1 -1 -0 -0 -0 -0 0 0 0 0 0 0 0 0 0 0 0 0
0 0 0 0 0 0 0 0 0 0 0 0 0 0 0 0 0 0 0 0 0 0 0 -0 -0 -1 -0 -0 -0 -1 -1 -1 -1 -0 -0 -0 0 0 0 0 0 0 0 0 -0 -0 0 0 0
0 0 0 0 0 0 0 0 0 0 0 0 0 0 0 0 0 0 0 0 0 0 0 -0 0 -0 -0 -0 -0 -0 -1 -0 -0 -0 -0 -0 0 0 0 0 0 0 0 0 -0 -0 -0 0 0
0 0 0 0 0 0 0 0 0 0 0 0 0 0 0 0 0 1 0 0 0 0 0 0 0 0 -0 -0 0 0 -0 -0 -0 -0 -0 0 0 0 0 0 0 0 0 0 -0 -0 0 0 0
0 0 0 0 0 0 0 0 0 0 0 0 0 0 0 0 0 0 0 0 0 0 0 0 0 0 0 0 0 0 0 -0 -0 -0 0 0 0 0 0 0 0 0 0 0 0 -0 -0 -0 -0
0 0 0 0 0 0 0 0 0 0 0 0 0 0 0 0 0 0 0 -0 -0 0 0 1 0 0 1 0 0 0 0 0 0 -0 -0 0 0 -0 -0 -0 -0 -0 -0 0 -0 -0 -0 -0 -0
0 0 0 0 0 0 0 0 0 0 0 0 0 0 0 0 0 0 0 0 0 0 0 0 1 0 0 0 1 0 0 0 0 -0 -0 -0 -0 -0 -0 -0 -0 0 0 0 0 -0 -0 -0 -0
0 0 0 0 0 0 0 0 0 0 0 0 0 0 0 0 0 0 0 0 0 0 0 0 1 1 0 0 0 1 0 0 0 0 -0 -0 -0 -0 -0 -0 0 0 0 0 0 0 -0 -0 -0
0 0 0 0 0 0 0 0 0 0 0 0 0 0 0 0 0 0 0 0 0 0 0 0 1 1 1 0 0 0 0 0 0 -0 -0 -0 -0 -0 -0 -0 0 0 0 0 0 0 0 -0 -0
0 0 0 0 0 0 0 0 0 0 0 0 0 0 0 0 0 0 0 0 0 0 0 0 1 1 1 0 1 1 0 0 0 0 0 0 -0 -0 -0 -0 0 0 0 0 0 0 0 0 0
0 0 0 0 0 0 0 0 0 0 0 0 0 0 0 0 0 0 0 0 0 0 0 0 1 2 2 1 1 1 1 1 0 0 0 0 0 0 0 0 0 0 0 0 0 0 0 0 0
0 0 0 0 0 0 0 0 0 0 0 0 0 0 0 0 0 0 0 0 0 0 0 0 1 2 2 2 2 2 1 1 1 1 1 1 1 0 0 0 0 0 0 0 0 0 0 0 0
0 0 0 0 0 0 0 0 0 0 0 0 0 0 0 0 0 0 0 0 0 0 0 1 1 2 2 2 3 4 5 2 1 1 1 1 1 1 0 0 0 0 0 0 0 0 0 0 0
0 0 0 0 0 0 0 0 0 0 0 0 0 0 0 0 0 0 0 0 0 0 0 1 1 2 3 3 3 3 3 2 2 1 2 1 2 1 1 1 0 0 0 0 0 0 0 0 0
0 0 0 0 0 0 0 0 0 0 0 0 0 0 0 0 0 0 0 0 0 0 0 1 2 2 3 3 3 3 2 2 2 1 1 2 2 1 1 1 1 1 0 0 0 0 0 0 0
0 0 0 0 0 0 0 0 0 0 0 0 0 0 0 0 0 0 0 0 0 0 0 1 1 1 2 4 3 3 3 2 1 1 1 1 2 1 2 1 1 1 1 0 0 0 0 0 1
0 0 0 0 0 0 0 0 0 0 0 0 0 0 0 0 0 0 0 0 0 0 0 1 1 1 2 3 4 2 2 2 2 3 2 2 2 1 2 2 2 2 1 1 0 1 0 1 1
0 0 0 0 0 0 0 0 0 0 0 0 0 0 0 0 0 0 0 0 0 0 0 0 1 2 4 4 4 4 3 2 2 2 3 2 2 1 2 3 3 3 2 2 2 1 1 1 1
0 0 0 0 0 0 0 0 0 0 0 0 0 0 0 0 0 0 0 0 0 0 0 0 1 2 2 4 6 4 5 3 2 2 3 3 2 2 2 4 4 4 3 4 3 2 1 1 1
0 0 0 0 0 0 0 0 0 0 0 0 0 0 0 0 0 0 0 0 0 0 0 0 1 2 4 5 5 7 6 5 4 3 3 3 2 2 2 3 4 6 6 4 5 4 3 1 3
0 0 0 0 0 0 0 -0 0 0 0 0 0 0 0 0 0 0 0 0 0 0 0 0 0 1 3 4 5 7 7 5 3 2 2 3 2 2 2 4 3 4 3 3 4 4 4 6 7
0 0 0 0 0 0 0 0 0 0 0 0 0 0 0 0 0 0 0 0 0 0 0 0 0 1 2 5 6 6 5 4 4 3 4 4 3 2 2 2 2 4 4 6 5 3 4 5 4
0 0 0 0 0 0 0 0 0 0 0 0 0 0 0 0 0 0 0 0 0 0 0 0 0 1 1 3 3 5 7 5 4 4 4 4 5 4 3 3 3 5 5 4 5 4 2 1 1
0 0 0 0 0 0 0 0 0 0 0 0 0 0 0 0 0 0 0 0 0 0 0 0 0 1 1 1 2 2 3 4 6 6 4 6 5 6 6 4 4 4 4 3 3 3 2 1 2
0 0 0 0 0 0 0 0 0 0 0 0 0 0 0 0 0 0 0 0 0 0 0 0 0 0 1 1 3 4 5 8 6 5 5 5 3 4 5 4 4 4 2 2 1 2 1 1 1
0 0 0 0 0 0 0 0 0 0 0 0 0 0 0 0 0 0 0 0 0 0 0 0 1 0 1 1 3 3 4 5 5 6 5 5 5 4 5 3 3 3 3 3 3 3 2 2 1
0 0 0 0 0 0 0 0 0 0 0 0 0 0 0 0 0 0 0 0 0 0 0 0 0 1 1 2 2 3 3 3 3 3 3 3 3 3 2 3 5 5 4 3 4 4 2 2 1
0 0 0 0 0 0 0 0 0 0 0 0 0 0 0 0 0 0 0 0 0 0 0 0 0 1 2 1 2 2 1 2 2 2 2 2 2 2 2 2 3 4 4 3 4 3 2 2 1
0 0 0 0 0 0 0 0 0 0 0 0 0 0 0 0 0 0 0 0 0 0 0 0 0 0 1 0 1 2 3 3 2 2 2 1 1 1 1 1 2 2 2 3 3 3 2 1 1
Wind_Speed_500mb
16 20 16 11 14 13 22 15 2 5 5 12 7 12 12 11 16 8 6 22 32 41 44 47 49 52 53 52 49 47 44 42 43 38 33 26 25 30 34 35 35 32 29 26 25 23 23 23 24
14 17 12 12 16 19 19 15 19 12 14 9 5 8 9 6 5 4 9 28 32 40 46 50 48 51 51 50 47 44 46 46 47 41 33 27 29 33 35 35 34 31 29 26 25 23 23 22 22
15 12 19 9 20 22 4 16 8 6 6 13 2 3 7 8 8 4 7 27 39 40 45 50 49 50 49 47 43 44 47 51 49 43 33 30 32 36 36 36 34 31 29 27 24 23 22 22 20
12 14 13 18 26 14 4 9 1 2 3 13 8 4 2 16 9 9 20 27 38 39 42 44 49 49 48 46 43 44 44 53 51 43 36 34 36 38 37 36 33 31 28 25 23 21 20 19 17
15 16 20 24 32 7 11 8 8 8 6 9 16 6 7 19 21 13 23 24 31 34 38 45 49 48 48 48 45 44 46 53 50 44 38 38 39 38 37 36 33 30 27 24 21 20 18 16 14
24 19 23 31 31 14 16 12 16 17 9 12 8 12 12 16 19 6 16 18 25 34 37 45 51 49 47 48 48 47 50 52 51 48 43 41 41 40 39 36 34 31 27 24 21 19 16 13 11
33 20 33 36 26 21 24 10 19 14 14 12 18 14 9 16 23 2 11 18 27 32 36 38 52 55 51 49 49 49 49 51 53 52 48 44 43 41 39 37 34 31 28 25 22 18 15 13 10
25 17 34 30 24 35 18 17 16 22 17 9 16 9 6 21 21 8 11 18 27 34 36 38 47 56 58 56 53 50 50 51 50 53 52 49 46 44 41 38 35 32 29 25 22 19 16 14 12
17 19 27 35 26 27 18 20 14 13 25 24 26 27 22 22 18 7 13 20 30 37 40 41 45 50 53 49 58 55 51 51 51 52 54 51 47 45 44 41 39 34 31 28 24 21 18 15 14
26 24 33 13 17 17 24 25 27 25 30 30 33 36 32 25 21 17 21 27 33 39 41 41 44 46 47 47 48 59 56 55 55 58 59 56 48 35 32 37 40 37 33 30 26 23 20 17 13
25 26 21 21 31 31 33 29 31 30 31 35 35 32 31 34 32 29 26 33 37 41 39 43 45 46 47 46 44 48 48 51 58 60 62 62 45 40 43 31 44 41 38 33 29 26 22 18 18
18 29 25 26 28 30 35 34 32 31 35 33 37 37 35 37 39 37 33 31 37 41 43 46 48 48 55 47 47 43 46 48 49 58 64 53 54 48 41 33 29 39 30 32 26 20 24 24 25
27 16 21 28 27 28 32 36 34 36 29 32 28 30 32 34 39 39 35 31 34 43 46 49 51 52 53 62 50 50 50 50 49 52 67 64 52 55 52 44 37 30 29 29 29 27 26 23 21
16 13 19 21 26 24 26 36 31 20 17 28 29 29 29 31 32 37 35 37 36 44 48 50 54 58 58 61 66 67 68 54 56 52 58 75 72 67 60 61 55 47 36 30 27 25 25 23 19
14 18 20 26 28 21 19 32 36 29 25 23 25 26 31 33 31 29 30 28 28 42 49 53 56 56 64 66 69 69 65 66 57 58 69 75 76 74 70 64 59 51 49 44 38 36 31 29 24
19 14 23 18 13 14 12 25 13 6 19 24 32 33 31 34 32 31 35 32 32 29 40 46 53 58 65 63 67 63 60 68 58 54 57 78 80 76 73 68 67 55 50 44 41 36 25 24 21
17 21 15 8 16 13 20 21 8 19 37 35 34 36 34 30 29 28 28 33 36 40 41 43 48 51 63 71 66 58 54 57 53 52 57 62 79 79 75 68 58 62 58 50 45 39 30 27 23
11 20 17 19 7 17 27 33 31 29 32 35 34 34 32 34 34 33 32 35 44 46 54 55 53 63 64 60 63 53 56 56 55 61 55 54 58 72 75 66 61 68 59 47 51 47 38 29 27
12 17 22 18 21 26 29 31 31 36 39 39 39 36 38 43 39 37 34 34 44 52 56 65 68 71 71 64 61 61 65 59 57 58 59 56 55 67 73 66 67 66 58 55 54 53 50 37 29
22 24 24 21 19 20 31 36 35 37 43 41 41 43 48 48 48 46 46 43 38 50 58 65 76 73 74 75 78 63 60 55 53 51 56 62 62 61 66 74 59 59 56 63 59 59 39 34 29
23 23 22 26 27 29 39 36 33 26 25 33 41 46 48 52 56 52 49 47 42 40 44 55 71 83 83 82 66 59 48 49 54 56 59 67 68 65 63 73 68 54 57 44 57 56 58 38 30
23 10 17 26 28 28 29 34 34 31 30 30 37 42 40 49 54 57 55 49 50 46 40 41 51 71 72 67 67 70 68 64 64 56 53 55 60 72 78 74 77 73 69 57 37 36 41 46 35
25 10 23 30 34 38 38 31 30 32 31 29 29 35 47 48 39 37 38 39 41 42 44 43 45 50 66 67 74 72 65 59 46 47 49 51 53 57 62 70 67 64 59 54 44 35 37 48 49
13 26 33 34 28 28 30 22 13 22 32 34 36 42 37 31 31 29 30 34 39 41 42 43 44 46 51 63 71 74 73 66 52 51 49 45 44 50 60 64 69 69 59 57 59 55 48 49 52
20 25 21 22 21 25 14 22 24 27 20 29 21 23 24 24 25 26 30 37 39 43 44 40 41 46 45 56 65 71 69 61 57 52 51 48 44 44 48 58 60 59 60 59 63 69 62 75 67
7 15 15 18 21 31 35 15 4 23 3 11 13 19 23 27 31 34 34 38 42 45 49 42 36 44 44 50 63 66 65 60 57 50 49 51 51 48 46 49 49 51 52 57 61 61 55 57 70
11 17 12 19 31 25 21 19 17 11 6 9 19 20 23 27 32 35 38 40 42 43 47 46 35 36 41 48 51 56 57 58 54 55 54 48 48 45 44 44 45 47 48 51 56 66 71 66 70
17 8 9 12 9 14 16 29 19 7 15 20 21 32 33 34 35 36 37 38 38 38 39 46 37 29 33 40 45 48 50 51 48 50 50 44 42 47 42 47 46 44 44 46 55 59 50 57 63
13 18 12 8 8 9 17 13 12 22 25 14 23 39 36 34 38 37 39 38 38 39 39 35 34 30 17 27 34 37 39 43 45 48 50 52 51 49 47 38 36 35 36 39 44 51 51 51 50
19 21 21 15 18 16 23 34 11 19 19 23 48 42 40 36 37 38 40 42 40 40 39 37 29 23 20 17 24 24 28 32 34 40 39 36 39 38 34 34 35 35 33 33 31 31 30 27 26
Wind_Direction_500mb
321 324 320 262 238 233 229 174 115 154 172 356 295 297 350 339 335 4 301 176 160 164 174 179 179 178 179 184 185 186 187 186 180 172 165 168 168 166 162 161 159 162 161 160 155 149 143 138 134
306 326 278 268 253 213 199 142 177 68 13 350 176 263 246 67 2 350 83 167 163 166 174 179 181 180 184 186 187 189 190 191 183 178 174 178 174 172 168 165 165 168 168 164 158 153 149 142 136
295 312 274 251 241 244 155 187 97 9 12 25 346 331 350 25 23 8 190 164 162 169 175 182 183 184 185 185 184 186 191 190 184 182 184 185 182 175 172 170 170 171 170 166 161 158 153 147 146
258 237 235 247 228 219 304 146 313 345 105 28 353 74 11 35 2 334 164 159 167 172 178 187 187 186 187 186 185 184 186 186 186 188 191 193 187 181 176 175 175 175 173 169 165 159 157 157 159
238 245 249 232 240 169 227 260 289 303 322 354 339 32 66 34 32 78 157 162 172 175 177 188 191 190 189 188 189 188 188 190 193 195 200 198 191 187 184 181 180 181 180 178 171 164 164 164 167
224 248 234 232 225 212 251 247 275 280 285 311 311 319 76 54 28 64 166 175 184 181 179 190 192 196 195 194 194 195 195 198 202 203 207 204 197 192 190 188 187 187 185 185 178 170 167 173 178
236 214 240 246 238 245 252 257 261 279 270 275 324 290 117 24 12 360 194 190 186 188 184 189 196 197 198 201 201 201 204 206 210 210 208 206 202 199 196 195 194 194 193 192 184 179 181 188 197
230 244 242 247 243 242 250 247 260 264 280 290 288 254 162 343 350 328 213 199 186 191 193 193 195 203 200 202 206 207 208 209 212 213 210 207 205 204 202 201 201 200 200 200 195 190 193 204 218
206 234 236 224 229 241 253 253 199 271 275 269 267 272 283 307 330 320 230 219 199 198 198 198 197 201 200 203 207 207 209 211 211 215 214 209 209 210 208 206 206 206 205 206 204 203 206 217 234
209 225 235 245 235 240 240 257 274 280 268 266 264 271 275 285 291 286 246 232 224 212 206 207 203 200 200 201 205 207 210 210 211 213 214 212 208 208 206 216 211 208 210 212 212 214 219 224 238
208 240 230 236 245 254 265 265 263 265 264 268 275 275 275 277 276 277 266 244 234 226 217 212 213 206 202 203 204 204 204 207 210 210 211 211 211 212 207 210 212 212 213 215 220 222 229 241 235
211 232 242 247 254 250 261 270 266 258 264 270 273 273 272 270 267 266 269 254 237 228 227 219 215 214 211 206 209 206 207 205 206 206 208 204 207 211 208 206 211 215 216 214 218 226 228 241 256
226 211 229 244 251 255 266 262 267 268 270 269 270 272 270 266 266 263 267 266 245 236 231 225 217 217 215 211 211 206 209 209 207 207 210 207 210 211 213 211 207 213 215 223 221 224 240 251 253
188 223 228 243 251 252 257 269 259 253 250 266 274 272 271 268 264 264 265 264 253 243 234 225 224 223 222 221 216 224 219 213 210 209 213 215 216 218 216 220 221 222 217 220 225 236 245 244 246
183 228 222 243 249 258 287 263 251 251 262 265 269 273 274 266 263 263 264 275 273 255 241 232 232 223 231 234 226 226 221 216 215 212 218 222 221 222 221 221 223 225 230 234 237 237 245 246 245
220 240 245 162 228 222 239 267 263 285 275 270 278 279 276 271 268 268 273 277 282 274 242 241 238 225 235 234 228 222 221 225 218 216 219 224 225 224 223 226 227 220 225 231 236 245 239 248 245
200 253 218 245 198 259 234 283 292 271 288 282 279 279 276 272 273 275 284 286 288 277 268 243 238 232 241 238 232 221 221 220 219 220 220 228 226 226 229 229 231 232 233 234 235 237 238 241 248
222 232 212 254 224 249 270 271 274 277 283 283 286 280 275 275 274 276 286 290 281 282 271 263 245 245 240 229 229 221 219 221 216 218 221 220 225 226 229 226 228 234 232 231 239 239 238 240 248
258 259 261 269 272 274 274 279 282 283 284 280 277 274 271 273 273 275 280 286 286 276 272 265 260 251 242 229 222 218 220 218 219 217 218 218 223 226 227 226 234 241 237 235 240 242 245 239 241
241 252 258 269 260 272 280 279 285 279 274 276 273 276 278 277 277 275 277 273 280 280 270 267 256 250 246 240 235 224 221 220 221 218 221 228 230 229 231 231 217 238 233 236 237 246 236 237 230
233 257 277 288 303 276 265 281 277 268 252 256 269 274 272 273 278 279 282 274 272 280 286 274 258 245 243 237 229 223 219 219 224 221 223 229 230 229 232 234 226 225 231 229 235 236 237 228 221
266 277 270 286 290 290 325 290 282 283 283 282 284 289 280 285 284 280 283 279 280 280 281 278 261 251 235 230 222 218 215 219 228 226 226 227 235 228 231 233 234 233 239 230 229 230 222 208 211
276 326 289 294 288 292 283 279 290 293 286 301 324 315 304 297 299 302 297 295 291 289 287 282 274 253 239 227 221 223 221 225 223 226 224 227 235 234 228 233 236 227 231 239 230 222 227 225 210
306 275 277 275 271 269 276 278 295 310 332 317 320 303 313 337 313 313 317 316 311 306 295 283 273 263 238 225 225 218 221 222 218 222 215 213 214 227 225 226 230 237 239 234 235 237 230 229 227
249 269 275 271 240 263 0 302 282 320 358 325 319 327 325 322 328 333 341 336 336 332 324 298 272 260 241 226 224 223 222 222 217 214 216 211 212 215 226 225 227 232 237 237 241 246 255 255 242
266 301 276 287 286 306 315 265 270 339 218 337 336 332 335 332 325 315 317 326 329 334 336 326 285 261 247 231 224 218 218 215 217 221 216 213 216 221 220 222 220 226 232 240 247 247 250 259 250
160 246 357 293 271 261 257 250 264 97 204 329 332 332 334 327 328 333 328 319 320 327 336 336 314 271 250 238 229 221 213 210 214 213 209 208 208 210 209 220 225 229 232 234 237 239 242 241 240
267 66 242 222 281 284 297 305 291 309 353 329 329 335 326 324 323 321 326 334 332 329 331 342 336 300 254 239 230 223 212 204 199 204 208 201 205 205 213 222 224 225 229 232 235 242 241 241 244
181 221 219 280 243 281 298 293 53 312 299 295 298 327 314 318 318 320 323 326 325 330 334 331 346 330 278 238 227 217 207 202 201 206 209 214 216 219 221 219 215 216 218 221 224 228 228 231 232
277 268 240 225 239 228 281 284 327 346 334 289 296 315 312 310 314 315 317 320 325 324 328 333 330 343 324 251 219 210 202 197 198 199 196 200 205 207 201 202 203 202 203 204 202 198 207 205 206
Wind_Speed_850mb
16 20 16 11 14 13 22 15 2 5 5 12 7 12 12 11 16 8 6 22 32 41 44 47 49 52 53 52 49 47 44 42 43 38 33 26 25 30 34 35 35 32 29 26 25 23 23 23 24
14 17 12 12 16 19 19 15 19 12 14 9 5 8 9 6 5 4 9 28 32 40 46 50 48 51 51 50 47 44 46 46 47 41 33 27 29 33 35 35 34 31 29 26 25 23 23 22 22
15 12 19 9 20 22 4 16 8 6 6 13 2 3 7 8 8 4 7 27 39 40 45 50 49 50 49 47 43 44 47 51 49 43 33 30 32 36 36 36 34 31 29 27 24 23 22 22 20
12 14 13 18 26 14 4 9 1 2 3 13 8 4 2 16 9 9 20 27 38 39 42 44 49 49 48 46 43 44 44 53 51 43 36 34 36 38 37 36 33 31 28 25 23 21 20 19 17
15 16 20 24 32 7 11 8 8 8 6 9 16 6 7 19 21 13 23 24 31 34 38 45 49 48 48 48 45 44 46 53 50 44 38 38 39 38 37 36 33 30 27 24 21 20 18 16 14
24 19 23 31 31 14 16 12 16 17 9 12 8 12 12 16 19 6 16 18 25 34 37 45 51 49 47 48 48 47 50 52 51 48 43 41 41 40 39 36 34 31 27 24 21 19 16 13 11
33 20 33 36 26 21 24 10 19 14 14 12 18 14 9 16 23 2 11 18 27 32 36 38 52 55 51 49 49 49 49 51 53 52 48 44 43 41 39 37 34 31 28 25 22 18 15 13 10
25 17 34 30 24 35 18 17 16 22 17 9 16 9 6 21 21 8 11 18 27 34 36 38 47 56 58 56 53 50 50 51 50 53 52 49 46 44 41 38 35 32 29 25 22 19 16 14 12
17 19 27 35 26 27 18 20 14 13 25 24 26 27 22 22 18 7 13 20 30 37 40 41 45 50 53 49 58 55 51 51 51 52 54 51 47 45 44 41 39 34 31 28 24 21 18 15 14
26 24 33 13 17 17 24 25 27 25 30 30 33 36 32 25 21 17 21 27 33 39 41 41 44 46 47 47 48 59 56 55 55 58 59 56 48 35 32 37 40 37 33 30 26 23 20 17 13
25 26 21 21 31 31 33 29 31 30 31 35 35 32 31 34 32 29 26 33 37 41 39 43 45 46 47 46 44 48 48 51 58 60 62 62 45 40 43 31 44 41 38 33 29 26 22 18 18
18 29 25 26 28 30 35 34 32 31 35 33 37 37 35 37 39 37 33 31 37 41 43 46 48 48 55 47 47 43 46 48 49 58 64 53 54 48 41 33 29 39 30 32 26 20 24 24 25
27 16 21 28 27 28 32 36 34 36 29 32 28 30 32 34 39 39 35 31 34 43 46 49 51 52 53 62 50 50 50 50 49 52 67 64 52 55 52 44 37 30 29 29 29 27 26 23 21
16 13 19 21 26 24 26 36 31 20 17 28 29 29 29 31 32 37 35 37 36 44 48 50 54 58 58 61 66 67 68 54 56 52 58 75 72 67 60 61 55 47 36 30 27 25 25 23 19
14 18 20 26 28 21 19 32 36 29 25 23 25 26 31 33 31 29 30 28 28 42 49 53 56 56 64 66 69 69 65 66 57 58 69 75 76 74 70 64 59 51 49 44 38 36 31 29 24
19 14 23 18 13 14 12 25 13 6 19 24 32 33 31 34 32 31 35 32 32 29 40 46 53 58 65 63 67 63 60 68 58 54 57 78 80 76 73 68 67 55 50 44 41 36 25 24 21
17 21 15 8 16 13 20 21 8 19 37 35 34 36 34 30 29 28 28 33 36 40 41 43 48 51 63 71 66 58 54 57 53 52 57 62 79 79 75 68 58 62 58 50 45 39 30 27 23
11 20 17 19 7 17 27 33 31 29 32 35 34 34 32 34 34 33 32 35 44 46 54 55 53 63 64 60 63 53 56 56 55 61 55 54 58 72 75 66 61 68 59 47 51 47 38 29 27
12 17 22 18 21 26 29 31 31 36 39 39 39 36 38 43 39 37 34 34 44 52 56 65 68 71 71 64 61 61 65 59 57 58 59 56 55 67 73 66 67 66 58 55 54 53 50 37 29
22 24 24 21 19 20 31 36 35 37 43 41 41 43 48 48 48 46 46 43 38 50 58 65 76 73 74 75 78 63 60 55 53 51 56 62 62 61 66 74 59 59 56 63 59 59 39 34 29
23 23 22 26 27 29 39 36 33 26 25 33 41 46 48 52 56 52 49 47 42 40 44 55 71 83 83 82 66 59 48 49 54 56 59 67 68 65 63 73 68 54 57 44 57 56 58 38 30
23 10 17 26 28 28 29 34 34 31 30 30 37 42 40 49 54 57 55 49 50 46 40 41 51 71 72 67 67 70 68 64 64 56 53 55 60 72 78 74 77 73 69 57 37 36 41 46 35
25 10 23 30 34 38 38 31 30 32 31 29 29 35 47 48 39 37 38 39 41 42 44 43 45 50 66 67 74 72 65 59 46 47 49 51 53 57 62 70 67 64 59 54 44 35 37 48 49
13 26 33 34 28 28 30 22 13 22 32 34 36 42 37 31 31 29 30 34 39 41 42 43 44 46 51 63 71 74 73 66 52 51 49 45 44 50 60 64 69 69 59 57 59 55 48 49 52
20 25 21 22 21 25 14 22 24 27 20 29 21 23 24 24 25 26 30 37 39 43 44 40 41 46 45 56 65 71 69 61 57 52 51 48 44 44 48 58 60 59 60 59 63 69 62 75 67
7 15 15 18 21 31 35 15 4 23 3 11 13 19 23 27 31 34 34 38 42 45 49 42 36 44 44 50 63 66 65 60 57 50 49 51 51 48 46 49 49 51 52 57 61 61 55 57 70
11 17 12 19 31 25 21 19 17 11 6 9 19 20 23 27 32 35 38 40 42 43 47 46 35 36 41 48 51 56 57 58 54 55 54 48 48 45 44 44 45 47 48 51 56 66 71 66 70
17 8 9 12 9 14 16 29 19 7 15 20 21 32 33 34 35 36 37 38 38 38 39 46 37 29 33 40 45 48 50 51 48 50 50 44 42 47 42 47 46 44 44 46 55 59 50 57 63
13 18 12 8 8 9 17 13 12 22 25 14 23 39 36 34 38 37 39 38 38 39 39 35 34 30 17 27 34 37 39 43 45 48 50 52 51 49 47 38 36 35 36 39 44 51 51 51 50
19 21 21 15 18 16 23 34 11 19 19 23 48 42 40 36 37 38 40 42 40 40 39 37 29 23 20 17 24 24 28 32 34 40 39 36 39 38 34 34 35 35 33 33 31 31 30 27 26
Wind_Direction_850mb
321 324 320 262 238 233 229 174 115 154 172 356 295 297 350 339 335 4 301 176 160 164 174 179 179 178 179 184 185 186 187 186 180 172 165 168 168 166 162 161 159 162 161 160 155 149 143 138 134
306 326 278 268 253 213 199 142 177 68 13 350 176 263 246 67 2 350 83 167 163 166 174 179 181 180 184 186 187 189 190 191 183 178 174 178 174 172 168 165 165 168 168 164 158 153 149 142 136
295 312 274 251 241 244 155 187 97 9 12 25 346 331 350 25 23 8 190 164 162 169 175 182 183 184 185 185 184 186 191 190 184 182 184 185 182 175 172 170 170 171 170 166 161 158 153 147 146
258 237 235 247 228 219 304 146 313 345 105 28 353 74 11 35 2 334 164 159 167 172 178 187 187 186 187 186 185 184 186 186 186 188 191 193 187 181 176 175 175 175 173 169 165 159 157 157 159
238 245 249 232 240 169 227 260 289 303 322 354 339 32 66 34 32 78 157 162 172 175 177 188 191 190 189 188 189 188 188 190 193 195 200 198 191 187 184 181 180 181 180 178 171 164 164 164 167
224 248 234 232 225 212 251 247 275 280 285 311 311 319 76 54 28 64 166 175 184 181 179 190 192 196 195 194 194 195 195 198 202 203 207 204 197 192 190 188 187 187 185 185 178 170 167 173 178
236 214 240 246 238 245 252 257 261 279 270 275 324 290 117 24 12 360 194 190 186 188 184 189 196 197 198 201 201 201 204 206 210 210 208 206 202 199 196 195 194 194 193 192 184 179 181 188 197
230 244 242 247 243 242 250 247 260 264 280 290 288 254 162 343 350 328 213 199 186 191 193 193 195 203 200 202 206 207 208 209 212 213 210 207 205 204 202 201 201 200 200 200 195 190 193 204 218
206 234 236 224 229 241 253 253 199 271 275 269 267 272 283 307 330 320 230 219 199 198 198 198 197 201 200 203 207 207 209 211 211 215 214 209 209 210 208 206 206 206 205 206 204 203 206 217 234
209 225 235 245 235 240 240 257 274 280 268 266 264 271 275 285 291 286 246 232 224 212 206 207 203 200 200 201 205 207 210 210 211 213 214 212 208 208 206 216 211 208 210 212 212 214 219 224 238
208 240 230 236 245 254 265 265 263 265 264 268 275 275 275 277 276 277 266 244 234 226 217 212 213 206 202 203 204 204 204 207 210 210 211 211 211 212 207 210 212 212 213 215 220 222 229 241 235
211 232 242 247 254 250 261 270 266 258 264 270 273 273 272 270 267 266 269 254 237 228 227 219 215 214 211 206 209 206 207 205 206 206 208 204 207 211 208 206 211 215 216 214 218 226 228 241 256
226 211 229 244 251 255 266 262 267 268 270 269 270 272 270 266 266 263 267 266 245 236 231 225 217 217 215 211 211 206 209 209 207 207 210 207 210 211 213 211 207 213 215 223 221 224 240 251 253
188 223 228 243 251 252 257 269 259 253 250 266 274 272 271 268 264 264 265 264 253 243 234 225 224 223 222 221 216 224 219 213 210 209 213 215 216 218 216 220 221 222 217 220 225 236 245 244 246
183 228 222 243 249 258 287 263 251 251 262 265 269 273 274 266 263 263 264 275 273 255 241 232 232 223 231 234 226 226 221 216 215 212 218 222 221 222 221 221 223 225 230 234 237 237 245 246 245
220 240 245 162 228 222 239 267 263 285 275 270 278 279 276 271 268 268 273 277 282 274 242 241 238 225 235 234 228 222 221 225 218 216 219 224 225 224 223 226 227 220 225 231 236 245 239 248 245
200 253 218 245 198 259 234 283 292 271 288 282 279 279 276 272 273 275 284 286 288 277 268 243 238 232 241 238 232 221 221 220 219 220 220 228 226 226 229 229 231 232 233 234 235 237 238 241 248
222 232 212 254 224 249 270 271 274 277 283 283 286 280 275 275 274 276 286 290 281 282 271 263 245 245 240 229 229 221 219 221 216 218 221 220 225 226 229 226 228 234 232 231 239 239 238 240 248
258 259 261 269 272 274 274 279 282 283 284 280 277 274 271 273 273 275 280 286 286 276 272 265 260 251 242 229 222 218 220 218 219 217 218 218 223 226 227 226 234 241 237 235 240 242 245 239 241
241 252 258 269 260 272 280 279 285 279 274 276 273 276 278 277 277 275 277 273 280 280 270 267 256 250 246 240 235 224 221 220 221 218 221 228 230 229 231 231 217 238 233 236 237 246 236 237 230
233 257 277 288 303 276 265 281 277 268 252 256 269 274 272 273 278 279 282 274 272 280 286 274 258 245 243 237 229 223 219 219 224 221 223 229 230 229 232 234 226 225 231 229 235 236 237 228 221
266 277 270 286 290 290 325 290 282 283 283 282 284 289 280 285 284 280 283 279 280 280 281 278 261 251 235 230 222 218 215 219 228 226 226 227 235 228 231 233 234 233 239 230 229 230 222 208 211
276 326 289 294 288 292 283 279 290 293 286 301 324 315 304 297 299 302 297 295 291 289 287 282 274 253 239 227 221 223 221 225 223 226 224 227 235 234 228 233 236 227 231 239 230 222 227 225 210
306 275 277 275 271 269 276 278 295 310 332 317 320 303 313 337 313 313 317 316 311 306 295 283 273 263 238 225 225 218 221 222 218 222 215 213 214 227 225 226 230 237 239 234 235 237 230 229 227
249 269 275 271 240 263 0 302 282 320 358 325 319 327 325 322 328 333 341 336 336 332 324 298 272 260 241 226 224 223 222 222 217 214 216 211 212 215 226 225 227 232 237 237 241 246 255 255 242
266 301 276 287 286 306 315 265 270 339 218 337 336 332 335 332 325 315 317 326 329 334 336 326 285 261 247 231 224 218 218 215 217 221 216 213 216 221 220 222 220 226 232 240 247 247 250 259 250
160 246 357 293 271 261 257 250 264 97 204 329 332 332 334 327 328 333 328 319 320 327 336 336 314 271 250 238 229 221 213 210 214 213 209 208 208 210 209 220 225 229 232 234 237 239 242 241 240
267 66 242 222 281 284 297 305 291 309 353 329 329 335 326 324 323 321 326 334 332 329 331 342 336 300 254 239 230 223 212 204 199 204 208 201 205 205 213 222 224 225 229 232 235 242 241 241 244
181 221 219 280 243 281 298 293 53 312 299 295 298 327 314 318 318 320 323 326 325 330 334 331 346 330 278 238 227 217 207 202 201 206 209 214 216 219 221 219 215 216 218 221 224 228 228 231 232
277 268 240 225 239 228 281 284 327 346 334 289 296 315 312 310 314 315 317 320 325 324 328 333 330 343 324 251 219 210 202 197 198 199 196 200 205 207 201 202 203 202 203 204 202 198 207 205 206